O/OREOS (USA 219)

Last updated on Sat Aug 15 2026 00:03:14 GMT+0000 (Coordinated Universal Time)

1 37224U 10062C 26226.58935971 .00000825 00000+0 83390-4 0 9993 2 37224 71.9708 308.0250 0016013 309.3087 50.6663 14.93946430125367
UTC large
Height (km)
Speed (km/s)
/
Latitude / Longitude
Inclination (degrees)
Orbital Period (minutes)
Azimuth
Elevation
Range (km)
Doppler Factor

Next 0 passes for location: London (51.5072 / 0.1276)

No passes found over London.
O/OREOS (USA 219)